Regional Weather Roundup
Issued by NWS

Home | Current Version | Previous Version | Graphics & Text | Print | Product List | Glossary On
Versions: 1 2 3 4 5 6 7 8 9 10 11 12 13 14 15 16 17 18 19 20 21 22 23 24 25 26 27 28 29 30 31 32 33 34 35 36 37 38 39 40 41 42 43 44 45 46 47 48 49 50
526
ASUS45 KTFX 250710
RWRMT
MONTANA REGIONAL WEATHER ROUNDUP
NATIONAL WEATHER SERVICE GREAT FALLS MT
100 AM MDT TUE JUL 25 2017

NOTE: "FAIR" INDICATES FEW OR NO CLOUDS BELOW 12000 FEET WITH NO
SIGNIFICANT WEATHER AND/OR OBSTRUCTIONS TO VISIBILITY.

MTZ001>007-043-250800-
WEST OF THE DIVIDE

CITY           SKY/WX    TMP DP  RH WIND       PRES   REMARKS
KALISPELL        N/A     54  37  52 NW5       29.98R
MISSOULA         N/A     64  32  30 N3        29.98R
BUTTE            N/A     60  36  40 SE7       30.12R
MULLAN PASS      N/A     59  26  28 N3        30.14S
ANACONDA         N/A     63  34  34 SW6       30.09R
DEER LODGE       N/A     61  34  36 CALM      30.09R
EUREKA           N/A     59  32  36 MISG      29.97
HAMILTON         N/A     63  45  51 CALM      30.01R
LIBBY            N/A     57  34  41 SE5       29.97R
$$

MTZ008-052>055-250800-
SOUTHWEST MONTANA

CITY           SKY/WX    TMP DP  RH WIND       PRES   REMARKS
BOZEMAN          N/A     65  48  54 SE7       30.04R
DILLON         CLOUDY    66  45  46 S14G22    30.08R
W YELLOWSTONE    N/A     46  45  93 CALM      30.22R
ENNIS          CLEAR     64  39  39 S8        30.13F
THREE FORKS      N/A     61  48  62 CALM      30.01R
$$

MTZ009-010-012-014-046-048-049-054-250800-
EAST SLOPES AND CENTRAL MONTANA

CITY           SKY/WX    TMP DP  RH WIND       PRES   REMARKS
CUT BANK         N/A     51  41  68 NW7       30.14R
GREAT FALLS      N/A     63  34  33 NE15      30.04R
HELENA           N/A     73  29  19 N9        30.01R
CHOTEAU          N/A     57  39  51 NW10      30.13R
$$

MTZ011-013-016-021-045-047-050-051-250800-
NORTH CENTRAL MONTANA

CITY           SKY/WX    TMP DP  RH WIND       PRES   REMARKS
HAVRE            N/A     63  39  41 NE8       30.04R
LEWISTOWN        N/A     68  44  42 SE12      30.01R
N BAR RANCH      N/A     61  45  55 VRB6      30.06R
CHINOOK          N/A     64  39  39 N7        30.02R
$$

MTZ017>020-022>027-061-062-250800-
NORTHEAST MONTANA

CITY           SKY/WX    TMP DP  RH WIND       PRES   REMARKS
GLASGOW          N/A     68  35  29 N13       29.93R
JORDAN           N/A     72  44  36 N13       29.91R
SIDNEY           N/A     71  46  40 N14       29.89R
WOLF POINT       N/A     71  42  35 N5        29.92R
MALTA          MOCLDY    64  36  34 NE8       29.97R
PLENTYWOOD       N/A     63  43  48 CALM      29.93R
POPLAR           N/A     66  45  45 N8        29.91R
$$

MTZ028>42-056>058-250800-
SOUTHCENTRAL AND SOUTHEAST MONTANA

CITY           SKY/WX    TMP DP  RH WIND       PRES   REMARKS
BAKER            N/A     74  50  42 E5        29.91S
LIVINGSTON       N/A     75  43  31 SW21G30   30.02R
MILES CITY       N/A     76  46  34 NE10      29.87R
BIG TIMBER     CLEAR     73  41  31 W18       30.02R
FORSYTH          N/A     75  48  38 CALM      29.89R
LAUREL           N/A     71  45  39 SW2       29.93R
$$

REGIONAL REPORTS...DAKOTAS

CITY           SKY/WX    TMP DP  RH WIND       PRES   REMARKS
WILLISTON        N/A     69  48  47 N9        29.90R
MINOT            N/A     69  55  60 NW3       29.83S
DICKINSON        N/A     67  57  70 N8        29.88R
BEACH            N/A     63  52  67 CALM      29.94R
CROSBY           N/A     55  48  76 CALM      29.91R
TIOGA            N/A     59  50  72 CALM      29.92R
WATFORD CITY     N/A     63  50  63 N5        29.88R
BISMARCK         N/A     68  66  93 SE5       29.84R
GRAND FORKS      N/A     68  65  90 S12       29.85R
FARGO            N/A     70  64  81 S17       29.88S
BUFFALO SD       N/A     73  60  63 NE10      29.83S
RAPID CITY       N/A     67  54  63 CALM      29.88F
$$

REGIONAL REPORTS...WYOMING/IDAHO/WASHINGTON

CITY           SKY/WX    TMP DP  RH WIND       PRES   REMARKS
GILLETTE         N/A     69  50  50 VRB3      29.96F
SHERIDAN         N/A     65  51  60 SW5       29.98S
BUFFALO WY       N/A     75  44  33 NW9       30.05S
CODY             N/A     75  40  28 SW7       30.04S
YELLOWSTONE LA   N/A     45  43  93 NW3       30.31S
IDAHO FALLS      N/A     63  54  72 N9        30.02S
BOISE            N/A     81  45  28 W9        29.91R
SPOKANE          N/A     73  36  25 CALM      29.96S
$$

REGIONAL REPORTS...ALBERTA

CITY           SKY/WX    TMP DP  RH WIND       PRES   REMARKS
EDMONTON       CLEAR     52  50  93 W8        29.97R
CALGARY        PTCLDY    55  43  62 W5        30.10R
LETHBRIDGE     CLEAR     48  41  76 W8        30.11R
MEDICINE HAT   CLEAR     55  43  62 NW5       30.05R
WATERTON GATE    N/A     43  41  93 CALM        N/A
CARDSTON         N/A     50  43  76 SW6         N/A
MILK RIVER       N/A     48  43  81 N5          N/A
$$

REGIONAL REPORTS...SASKATCHEWAN

CITY           SKY/WX    TMP DP  RH WIND       PRES   REMARKS
SWIFT CURRENT  CLEAR     54  43  66 W17G23    29.96R
REGINA         CLEAR     57  45  62 W15G21    29.88R
SASKATOON      DRIZZLE   57  54  88 W21G29    29.74R
VAL MARIE        N/A     59  39  47 N14G20      N/A
ROCKGLEN         N/A     61  36  39 NW15G23     N/A
$$




USA.gov is the U.S. government's official web portal to all federal, state and local government web resources and services.